Torna al catalogo

CZ-4 DEB

AttivoPO
NORAD 20861·DEBRIS·🇨🇳 China

Lanciato Sep 3, 1990 da Taiyuan Satellite Launch Center

Loading…

Prossimi Passaggi (prossime 24 ore)

TLE

AggiornatoSource: Space-Track

Epoca: Sep 14, 2026, 22:46 UTC

1 20861U 90081Z   26257.94924101  .00772229  00000-0  61311-2 0  9990
2 20861  97.9772 338.5442 0010218 281.9797  78.0317 15.68925868888293

Traccia CZ-4 DEB in tempo reale con AllMySat

Download on the App Store